When you browse on this site, cookies collect data to enhance your experience and personalize the content and advertising you see.
Visit our Privacy Policy to learn more. By continuing to use the site, you agree to this use of cookies and data.
  • In France
  • List of Countries
  • For 7 days
  • Water Temperature
  • Weather Map
  • Weather Widgets
  • user-avatar
    Login

    Hourly Weather Matlock

    Today, 13 December, Friday

    Time Temperature Precipitation Wind Pressure Humidity
    00:00 +3°C° 0.1 mm 3 mps 710 mmHg 96%
    01:00 +3°C° 0.1 mm 3 mps 711 mmHg 95%
    02:00 +3°C° 0.1 mm 4 mps 711 mmHg 95%
    03:00 +3°C° 0.1 mm 4 mps 711 mmHg 94%
    04:00 +2°C° 0.4 mm 5 mps 712 mmHg 92%
    05:00 +3°C° 0.4 mm 6 mps 713 mmHg 90%
    06:00 +3°C° 0.4 mm 6 mps 714 mmHg 88%
    07:00 +3°C° 0.2 mm 7 mps 714 mmHg 88%
    08:00 +3°C° 0.2 mm 7 mps 715 mmHg 87%
    09:00 +2°C° 0.2 mm 8 mps 716 mmHg 87%
    10:00 +2°C° 0.1 mm 8 mps 716 mmHg 86%
    11:00 +2°C° 0.1 mm 8 mps 716 mmHg 84%
    12:00 +2°C° 0.1 mm 9 mps 717 mmHg 83%
    13:00 +3°C° 0.3 mm 9 mps 717 mmHg 82%
    14:00 +4°C° 0.3 mm 8 mps 717 mmHg 82%
    15:00 +4°C° 0.3 mm 8 mps 718 mmHg 81%
    16:00 +4°C° 0.1 mm 8 mps 718 mmHg 81%
    17:00 +3°C° 0.1 mm 9 mps 719 mmHg 82%
    18:00 +2°C° 0.1 mm 9 mps 719 mmHg 82%
    19:00 +2°C° 0 mm 8 mps 719 mmHg 82%
    20:00 +2°C° 0 mm 7 mps 719 mmHg 82%
    21:00 0°C° 0 mm 7 mps 719 mmHg 82%
    22:00 +1°C° 0 mm 6 mps 718 mmHg 83%
    23:00 +1°C° 0 mm 5 mps 718 mmHg 84%

    Tomorrow, 14 December, Saturday

    Time Temperature Precipitation Wind Pressure Humidity
    00:00 +1°C° 0 mm 5 mps 718 mmHg 86%
    01:00 +1°C° 0 mm 5 mps 718 mmHg 87%
    02:00 +1°C° 0 mm 6 mps 718 mmHg 88%
    03:00 0°C° 0 mm 7 mps 718 mmHg 89%
    04:00 0°C° 0.6 mm 8 mps 719 mmHg 84%
    05:00 0°C° 0.6 mm 9 mps 720 mmHg 78%
    06:00 +1°C° 0.6 mm 10 mps 720 mmHg 73%
    07:00 0°C° 0 mm 9 mps 721 mmHg 73%
    08:00 0°C° 0 mm 9 mps 721 mmHg 72%
    09:00 -1°C° 0 mm 8 mps 722 mmHg 72%
    10:00 0°C° 0.1 mm 9 mps 722 mmHg 70%
    11:00 0°C° 0.1 mm 10 mps 723 mmHg 69%
    12:00 0°C° 0.1 mm 10 mps 723 mmHg 67%
    13:00 0°C° 0 mm 9 mps 723 mmHg 67%
    14:00 0°C° 0 mm 8 mps 724 mmHg 66%
    15:00 -1°C° 0 mm 7 mps 724 mmHg 66%
    16:00 -1°C° 0 mm 6 mps 724 mmHg 69%
    17:00 -1°C° 0 mm 5 mps 723 mmHg 72%
    18:00 -1°C° 0 mm 4 mps 723 mmHg 75%
    19:00 0°C° 0.7 mm 5 mps 722 mmHg 80%
    20:00 -1°C° 0.7 mm 7 mps 722 mmHg 84%
    21:00 0°C° 0.7 mm 8 mps 721 mmHg 89%
    22:00 0°C° 0.3 mm 8 mps 721 mmHg 89%
    23:00 -1°C° 0.3 mm 8 mps 720 mmHg 90%

    Day after tomorrow, 15 December, Sunday

    Time Temperature Precipitation Wind Pressure Humidity
    00:00 -1°C° 0.3 mm 7 mps 720 mmHg 91%
    01:00 -2°C° 0.5 mm 7 mps 721 mmHg 89%
    02:00 -2°C° 0.5 mm 7 mps 722 mmHg 87%
    03:00 -2°C° 0.5 mm 7 mps 724 mmHg 85%
    04:00 -2°C° 0 mm 6 mps 724 mmHg 85%
    05:00 -2°C° 0 mm 5 mps 725 mmHg 85%
    06:00 -2°C° 0 mm 4 mps 726 mmHg 86%
    07:00 -1°C° 0.1 mm 5 mps 726 mmHg 85%
    08:00 -2°C° 0.1 mm 6 mps 726 mmHg 85%
    09:00 -1°C° 0.1 mm 7 mps 727 mmHg 85%
    10:00 0°C° 0.1 mm 7 mps 727 mmHg 82%
    11:00 0°C° 0.1 mm 8 mps 727 mmHg 79%
    12:00 +1°C° 0.1 mm 8 mps 728 mmHg 76%
    13:00 +2°C° 0 mm 7 mps 728 mmHg 78%
    14:00 +2°C° 0 mm 6 mps 728 mmHg 79%
    15:00 +1°C° 0 mm 5 mps 728 mmHg 80%
    16:00 +1°C° 0.5 mm 5 mps 728 mmHg 84%
    17:00 +1°C° 0.5 mm 5 mps 728 mmHg 88%
    18:00 +1°C° 0.5 mm 6 mps 728 mmHg 92%
    19:00 -1°C° 0.7 mm 6 mps 728 mmHg 91%
    20:00 0°C° 0.7 mm 5 mps 728 mmHg 90%
    21:00 0°C° 0.7 mm 5 mps 729 mmHg 88%
    22:00 0°C° 0 mm 5 mps 729 mmHg 87%
    23:00 0°C° 0 mm 5 mps 729 mmHg 86%

    16 December, Monday

    Time Temperature Precipitation Wind Pressure Humidity
    00:00 +1°C° 0 mm 5 mps 729 mmHg 85%
    01:00 +1°C° 0.1 mm 6 mps 729 mmHg 85%
    02:00 +1°C° 0.1 mm 6 mps 729 mmHg 85%
    03:00 +1°C° 0.1 mm 6 mps 728 mmHg 85%
    04:00 +1°C° 0 mm 6 mps 729 mmHg 84%
    05:00 0°C° 0 mm 7 mps 729 mmHg 82%
    06:00 0°C° 0 mm 7 mps 729 mmHg 81%
    07:00 0°C° 0 mm 7 mps 729 mmHg 82%
    08:00 +1°C° 0 mm 6 mps 730 mmHg 82%
    09:00 +1°C° 0 mm 6 mps 731 mmHg 83%
    10:00 +1°C° 0 mm 6 mps 731 mmHg 81%
    11:00 +2°C° 0 mm 6 mps 732 mmHg 79%
    12:00 +2°C° 0 mm 6 mps 732 mmHg 77%
    13:00 +2°C° 0 mm 5 mps 733 mmHg 79%
    14:00 +1°C° 0 mm 4 mps 733 mmHg 81%
    15:00 +2°C° 0 mm 3 mps 733 mmHg 83%
    16:00 +2°C° 0 mm 3 mps 733 mmHg 85%
    17:00 +2°C° 0 mm 2 mps 734 mmHg 87%
    18:00 +2°C° 0 mm 2 mps 734 mmHg 89%
    19:00 +2°C° 0 mm 2 mps 734 mmHg 90%
    20:00 +2°C° 0 mm 2 mps 734 mmHg 91%
    21:00 +2°C° 0 mm 2 mps 735 mmHg 92%
    22:00 +2°C° 0 mm 2 mps 735 mmHg 92%
    23:00 +2°C° 0 mm 2 mps 735 mmHg 91%

    17 December, Tuesday

    Time Temperature Precipitation Wind Pressure Humidity
    00:00 +2°C° 0 mm 2 mps 735 mmHg 91%
    01:00 +1°C° 0 mm 2 mps 735 mmHg 91%
    02:00 +1°C° 0 mm 2 mps 735 mmHg 91%
    03:00 +1°C° 0 mm 2 mps 735 mmHg 92%
    04:00 +1°C° 0 mm 2 mps 736 mmHg 92%
    05:00 +1°C° 0 mm 2 mps 736 mmHg 92%
    06:00 +1°C° 0 mm 2 mps 736 mmHg 92%
    07:00 +1°C° 0 mm 2 mps 736 mmHg 93%
    08:00 +1°C° 0 mm 2 mps 736 mmHg 93%
    09:00 +1°C° 0 mm 2 mps 737 mmHg 93%
    10:00 +2°C° 0 mm 2 mps 737 mmHg 91%
    11:00 +2°C° 0 mm 3 mps 737 mmHg 88%
    12:00 +3°C° 0 mm 3 mps 737 mmHg 85%
    13:00 +3°C° 0 mm 3 mps 737 mmHg 86%
    14:00 +3°C° 0 mm 4 mps 738 mmHg 88%
    15:00 +3°C° 0 mm 4 mps 738 mmHg 89%
    16:00 +1°C° 0 mm 4 mps 738 mmHg 90%
    17:00 +2°C° 0 mm 3 mps 739 mmHg 91%
    18:00 +1°C° 0 mm 3 mps 739 mmHg 91%
    19:00 +1°C° 0 mm 3 mps 740 mmHg 92%
    20:00 +1°C° 0 mm 3 mps 741 mmHg 92%
    21:00 0°C° 0 mm 3 mps 741 mmHg 92%
    22:00 0°C° 0 mm 3 mps 742 mmHg 92%
    23:00 +1°C° 0 mm 2 mps 742 mmHg 92%

    18 December, Wednesday

    Time Temperature Precipitation Wind Pressure Humidity
    00:00 +1°C° 0 mm 2 mps 743 mmHg 92%
    01:00 +1°C° 0 mm 2 mps 743 mmHg 92%
    02:00 +1°C° 0 mm 2 mps 744 mmHg 91%
    03:00 +1°C° 0 mm 2 mps 744 mmHg 90%
    04:00 +1°C° 0 mm 2 mps 744 mmHg 90%
    05:00 +1°C° 0 mm 2 mps 744 mmHg 90%
    06:00 +1°C° 0 mm 2 mps 745 mmHg 90%
    07:00 +1°C° 0 mm 2 mps 745 mmHg 90%
    08:00 +1°C° 0 mm 2 mps 745 mmHg 91%
    09:00 +1°C° 0 mm 2 mps 746 mmHg 91%
    10:00 +2°C° 0 mm 2 mps 746 mmHg 90%
    11:00 +2°C° 0 mm 3 mps 746 mmHg 88%
    12:00 +3°C° 0 mm 3 mps 745 mmHg 86%
    13:00 +3°C° 0 mm 3 mps 745 mmHg 88%
    14:00 +3°C° 0 mm 3 mps 745 mmHg 89%
    15:00 +3°C° 0 mm 3 mps 745 mmHg 91%
    16:00 +2°C° 0 mm 3 mps 744 mmHg 92%
    17:00 +2°C° 0 mm 3 mps 744 mmHg 93%
    18:00 0°C° 0 mm 4 mps 744 mmHg 94%
    19:00 0°C° 0 mm 4 mps 744 mmHg 94%
    20:00 0°C° 0 mm 4 mps 744 mmHg 94%
    21:00 0°C° 0 mm 4 mps 744 mmHg 95%
    22:00 +1°C° 0 mm 3 mps 744 mmHg 95%
    23:00 +1°C° 0 mm 3 mps 744 mmHg 95%
    Show more